Location: Township of Marena
(38.1747°N, 99.6798°W)
Time: 02:57:30
(UTC+00:00)

Cosmos 1758 Rocket - Pass Details

Date: 26 October 2020
Orbit: 601 x 637 km, 82.5° (Epoch: 27 November)

Event Time Altitude Azimuth Distance (km) Brightness Sun altitude
Rises 00:26:50 0° 351° (N) 2,906 7.0 -8.5°
Reaches altitude 10° 00:29:05 10° 349° (N) 1,989 6.2 -8.9°
Maximum altitude 00:33:29 76° 265° (W) 635 3.8 -9.8°
Drops below altitude 10° 00:37:48 10° 179° (S) 1,953 6.2 -10.6°
Sets 00:39:59 0° 178° (S) 2,847 7.0 -11.1°
